ARG1782 SABE-SARI

Flight info

Callsign ARG1782
Flight time 1h 27m
Altitude 37000
Route LANDA4B LANDA UN785 GEMSU UT667 DOKBA DOKBA3M
Aircraft B738/M-MSDFGHILRVWS/LB1

Departure

Time 2026-04-21 17:32
Airport Aeroparque Jorge Newbery (SABE)

Arrival

Time 2026-04-21 19:00
Airport Cataratas Del Iguazú International Airport (SARI)
Time Latitude Longitude Altitude Speed Heading
2026-04-21 16:49 -34.55699 -58.41445 24 ft 0 kts 18°
2026-04-21 17:21 -34.55702 -58.41446 24 ft 3 kts 18°
2026-04-21 17:21 -34.55728 -58.41456 26 ft 4 kts
2026-04-21 17:21 -34.55745 -58.41450 30 ft 2 kts 303°
2026-04-21 17:21 -34.55759 -58.41424 29 ft 3 kts 304°
2026-04-21 17:22 -34.55762 -58.41420 28 ft 0 kts 304°
2026-04-21 17:25 -34.55761 -58.41420 24 ft 1 kts 304°
2026-04-21 17:25 -34.55745 -58.41452 27 ft 6 kts 300°
2026-04-21 17:26 -34.55725 -58.41497 26 ft 6 kts 296°
2026-04-21 17:26 -34.55725 -58.41545 24 ft 6 kts 243°
2026-04-21 17:26 -34.55756 -58.41576 24 ft 6 kts 214°
2026-04-21 17:26 -34.55784 -58.41611 24 ft 6 kts 249°
2026-04-21 17:27 -34.55776 -58.41657 28 ft 6 kts 294°
2026-04-21 17:27 -34.55758 -58.41700 27 ft 6 kts 296°
2026-04-21 17:27 -34.55741 -58.41742 26 ft 6 kts 296°
2026-04-21 17:27 -34.55722 -58.41782 26 ft 5 kts 303°
2026-04-21 17:28 -34.55701 -58.41820 28 ft 6 kts 304°
2026-04-21 17:28 -34.55674 -58.41868 27 ft 8 kts 304°
2026-04-21 17:28 -34.55644 -58.41921 28 ft 8 kts 304°
2026-04-21 17:28 -34.55615 -58.41974 26 ft 7 kts 304°
2026-04-21 17:29 -34.55587 -58.42024 24 ft 7 kts 304°
2026-04-21 17:29 -34.55558 -58.42071 24 ft 7 kts 307°
2026-04-21 17:29 -34.55529 -58.42118 28 ft 7 kts 307°
2026-04-21 17:29 -34.55497 -58.42170 26 ft 9 kts 307°
2026-04-21 17:30 -34.55456 -58.42236 27 ft 11 kts 307°
2026-04-21 17:30 -34.55411 -58.42308 25 ft 11 kts 307°
2026-04-21 17:30 -34.55371 -58.42382 26 ft 10 kts 288°
2026-04-21 17:30 -34.55362 -58.42468 24 ft 10 kts 257°
2026-04-21 17:31 -34.55407 -58.42504 25 ft 5 kts 164°
2026-04-21 17:31 -34.55417 -58.42489 26 ft 1 kts 123°
2026-04-21 17:31 -34.55437 -58.42453 26 ft 25 kts 123°
2026-04-21 17:31 -34.55690 -58.42001 26 ft 103 kts 124°
2026-04-21 17:32 -34.56217 -58.41056 51 ft 162 kts 124°
2026-04-21 17:32 -34.56891 -58.39867 632 ft 177 kts 123°
2026-04-21 17:32 -34.57543 -58.38513 1205 ft 199 kts 108°
2026-04-21 17:32 -34.57646 -58.36751 1429 ft 228 kts 80°
2026-04-21 17:33 -34.57273 -58.34857 1973 ft 238 kts 65°
2026-04-21 17:33 -34.56226 -58.33232 2225 ft 261 kts 34°
2026-04-21 17:33 -34.54509 -58.32081 2170 ft 301 kts 25°
2026-04-21 17:33 -34.52702 -58.30818 3318 ft 296 kts 33°
2026-04-21 17:34 -34.50972 -58.29544 4549 ft 285 kts 17°
2026-04-21 17:34 -34.49096 -58.29257 5932 ft 266 kts 350°
2026-04-21 17:34 -34.47391 -58.29990 6980 ft 261 kts 324°
2026-04-21 17:34 -34.46033 -58.31407 7888 ft 263 kts 315°
2026-04-21 17:35 -34.44554 -58.32735 8766 ft 267 kts 328°
2026-04-21 17:35 -34.42932 -58.33846 9681 ft 270 kts 328°
2026-04-21 17:35 -34.41304 -58.34997 10469 ft 275 kts 327°
2026-04-21 17:35 -34.39585 -58.36241 10717 ft 301 kts 327°
2026-04-21 17:36 -34.37732 -58.37601 11104 ft 318 kts 327°
2026-04-21 17:36 -34.35824 -58.39009 11797 ft 324 kts 327°
2026-04-21 17:36 -34.33892 -58.40439 12597 ft 326 kts 327°
2026-04-21 17:36 -34.31953 -58.41878 13397 ft 328 kts 327°
2026-04-21 17:37 -34.29999 -58.43332 14118 ft 332 kts 327°
2026-04-21 17:37 -34.28051 -58.44782 14802 ft 335 kts 326°
2026-04-21 17:37 -34.26064 -58.46262 15506 ft 337 kts 326°
2026-04-21 17:37 -34.24059 -58.47756 16172 ft 340 kts 326°
2026-04-21 17:38 -34.22032 -58.49264 16846 ft 343 kts 326°
2026-04-21 17:38 -34.19992 -58.50782 17516 ft 346 kts 326°
2026-04-21 17:38 -34.17928 -58.52317 18163 ft 350 kts 326°
2026-04-21 17:38 -34.15848 -58.53862 18720 ft 353 kts 326°
2026-04-21 17:39 -34.13741 -58.55412 19305 ft 356 kts 328°
2026-04-21 17:39 -34.11401 -58.56466 19938 ft 365 kts 345°
2026-04-21 17:39 -34.08884 -58.56778 20527 ft 372 kts 352°
2026-04-21 17:39 -34.06280 -58.56883 21026 ft 377 kts 353°
2026-04-21 17:40 -34.03644 -58.56958 21522 ft 381 kts 353°
2026-04-21 17:40 -34.00985 -58.57043 22058 ft 384 kts 352°
2026-04-21 17:40 -33.98306 -58.57148 22579 ft 386 kts 352°
2026-04-21 17:40 -33.95614 -58.57269 23099 ft 389 kts 352°
2026-04-21 17:41 -33.92901 -58.57399 23588 ft 392 kts 351°
2026-04-21 17:41 -33.90166 -58.57530 24000 ft 395 kts 351°
2026-04-21 17:41 -33.87451 -58.57654 24426 ft 397 kts 351°
2026-04-21 17:41 -33.84677 -58.57777 24748 ft 401 kts 351°
2026-04-21 17:42 -33.81868 -58.57901 25099 ft 405 kts 351°
2026-04-21 17:42 -33.79042 -58.58023 25514 ft 407 kts 351°
2026-04-21 17:42 -33.76200 -58.58146 25924 ft 409 kts 351°
2026-04-21 17:42 -33.73348 -58.58269 26321 ft 412 kts 351°
2026-04-21 17:43 -33.70476 -58.58394 26691 ft 414 kts 351°
2026-04-21 17:43 -33.67587 -58.58520 27058 ft 417 kts 351°
2026-04-21 17:43 -33.64682 -58.58647 27392 ft 419 kts 351°
2026-04-21 17:43 -33.61792 -58.58774 27656 ft 424 kts 351°
2026-04-21 17:44 -33.58832 -58.58904 27951 ft 427 kts 351°
2026-04-21 17:44 -33.55855 -58.59033 28315 ft 429 kts 351°
2026-04-21 17:44 -33.52865 -58.59162 28675 ft 431 kts 350°
2026-04-21 17:44 -33.49861 -58.59292 29001 ft 433 kts 350°
2026-04-21 17:45 -33.46843 -58.59423 29314 ft 435 kts 350°
2026-04-21 17:45 -33.43805 -58.59555 29635 ft 438 kts 350°
2026-04-21 17:45 -33.40752 -58.59688 29913 ft 440 kts 350°
2026-04-21 17:45 -33.37683 -58.59821 30171 ft 443 kts 350°
2026-04-21 17:46 -33.34635 -58.59953 30407 ft 445 kts 350°
2026-04-21 17:46 -33.31536 -58.60087 30674 ft 447 kts 349°
2026-04-21 17:46 -33.28423 -58.60221 30923 ft 448 kts 349°
2026-04-21 17:46 -33.25302 -58.60355 31207 ft 449 kts 349°
2026-04-21 17:47 -33.22185 -58.60488 31563 ft 448 kts 349°
2026-04-21 17:47 -33.19077 -58.60620 31881 ft 447 kts 348°
2026-04-21 17:47 -33.15973 -58.60754 32127 ft 448 kts 348°
2026-04-21 17:47 -33.12852 -58.60890 32382 ft 449 kts 348°
2026-04-21 17:48 -33.10787 -58.60979 32591 ft 448 kts 348°
2026-04-21 17:48 -33.06631 -58.61157 33052 ft 447 kts 348°
2026-04-21 17:48 -33.03566 -58.61277 33315 ft 448 kts 349°
2026-04-21 17:48 -33.00412 -58.61038 33563 ft 461 kts 358°
2026-04-21 17:49 -32.97238 -58.60199 33847 ft 474 kts
2026-04-21 17:49 -32.94080 -58.59043 34117 ft 475 kts
2026-04-21 17:49 -32.90926 -58.57845 34354 ft 476 kts
2026-04-21 17:49 -32.87773 -58.56644 34607 ft 475 kts
2026-04-21 17:50 -32.84624 -58.55459 34878 ft 474 kts
2026-04-21 17:50 -32.81480 -58.54292 35139 ft 472 kts
2026-04-21 17:50 -32.78340 -58.53143 35371 ft 472 kts
2026-04-21 17:50 -32.75244 -58.52017 35612 ft 472 kts
2026-04-21 17:51 -32.72108 -58.50881 35873 ft 471 kts
2026-04-21 17:51 -32.68979 -58.49750 36050 ft 471 kts
2026-04-21 17:51 -32.65828 -58.48612 36181 ft 473 kts
2026-04-21 17:51 -32.62678 -58.47475 36353 ft 473 kts
2026-04-21 17:52 -32.59534 -58.46337 36599 ft 472 kts
2026-04-21 17:52 -32.56392 -58.45199 36841 ft 471 kts
2026-04-21 17:52 -32.53258 -58.44066 37026 ft 472 kts
2026-04-21 17:52 -32.50145 -58.42945 37013 ft 475 kts
2026-04-21 17:53 -32.43843 -58.40671 37002 ft 471 kts
2026-04-21 17:53 -32.37586 -58.38415 37016 ft 469 kts
2026-04-21 17:54 -32.31351 -58.36175 37025 ft 468 kts
2026-04-21 17:54 -32.25129 -58.33934 37025 ft 467 kts
2026-04-21 17:55 -32.18941 -58.31704 37020 ft 469 kts
2026-04-21 17:55 -32.12702 -58.29458 37018 ft 469 kts
2026-04-21 17:56 -32.06449 -58.27211 37025 ft 470 kts
2026-04-21 17:56 -32.00194 -58.24966 37021 ft 470 kts
2026-04-21 17:57 -31.93970 -58.22735 36989 ft 471 kts
2026-04-21 17:57 -31.87692 -58.20488 37016 ft 472 kts
2026-04-21 17:58 -31.81407 -58.18242 37018 ft 473 kts
2026-04-21 17:58 -31.75108 -58.15995 37027 ft 474 kts
2026-04-21 17:59 -31.68834 -58.13759 37023 ft 475 kts
2026-04-21 17:59 -31.62516 -58.11510 36999 ft 475 kts
2026-04-21 18:00 -31.56186 -58.09261 37001 ft 475 kts
2026-04-21 18:00 -31.49856 -58.07015 36996 ft 476 kts
2026-04-21 18:01 -31.43564 -58.04785 36997 ft 476 kts
2026-04-21 18:01 -31.37235 -58.02545 36989 ft 475 kts
2026-04-21 18:02 -31.30906 -58.00308 36987 ft 475 kts
2026-04-21 18:02 -31.24593 -57.98080 36995 ft 474 kts
2026-04-21 18:03 -31.18281 -57.95857 36993 ft 474 kts
2026-04-21 18:03 -31.12015 -57.93652 36986 ft 473 kts
2026-04-21 18:04 -31.05713 -57.91437 37002 ft 472 kts
2026-04-21 18:04 -30.99422 -57.89230 37012 ft 473 kts
2026-04-21 18:05 -30.93118 -57.87022 37016 ft 473 kts
2026-04-21 18:05 -30.86851 -57.84829 36997 ft 474 kts
2026-04-21 18:06 -30.80539 -57.82623 37012 ft 474 kts
2026-04-21 18:06 -30.74214 -57.80415 37015 ft 475 kts
2026-04-21 18:07 -30.67875 -57.78204 37015 ft 476 kts
2026-04-21 18:07 -30.61575 -57.75996 36989 ft 477 kts
2026-04-21 18:08 -30.55224 -57.73766 37008 ft 477 kts
2026-04-21 18:08 -30.48868 -57.71540 37016 ft 478 kts
2026-04-21 18:09 -30.42500 -57.69314 37004 ft 478 kts
2026-04-21 18:09 -30.36124 -57.67086 36988 ft 478 kts
2026-04-21 18:10 -30.29805 -57.64882 37002 ft 478 kts
2026-04-21 18:10 -30.26650 -57.63529 37007 ft 491 kts 14°
2026-04-21 18:10 -30.23623 -57.61587 37007 ft 505 kts 24°
2026-04-21 18:11 -30.17837 -57.56940 37005 ft 508 kts 25°
2026-04-21 18:11 -30.12081 -57.52221 37004 ft 507 kts 25°
2026-04-21 18:12 -30.06339 -57.47597 36988 ft 506 kts 25°
2026-04-21 18:12 -30.00549 -57.42998 37005 ft 505 kts 24°
2026-04-21 18:13 -29.94763 -57.38424 37011 ft 504 kts 24°
2026-04-21 18:13 -29.88984 -57.33859 37007 ft 504 kts 24°
2026-04-21 18:14 -29.80359 -57.27051 37011 ft 503 kts 24°
2026-04-21 18:15 -29.74585 -57.22500 36994 ft 503 kts 25°
2026-04-21 18:15 -29.68826 -57.17967 36995 ft 502 kts 24°
2026-04-21 18:16 -29.63056 -57.13433 36997 ft 502 kts 24°
2026-04-21 18:16 -29.57327 -57.08938 36986 ft 502 kts 25°
2026-04-21 18:17 -29.51556 -57.04416 37015 ft 502 kts 25°
2026-04-21 18:17 -29.45785 -56.99900 37011 ft 503 kts 25°
2026-04-21 18:18 -29.39997 -56.95377 37010 ft 503 kts 25°
2026-04-21 18:18 -29.34211 -56.90862 37005 ft 503 kts 25°
2026-04-21 18:19 -29.28459 -56.86379 37016 ft 504 kts 25°
2026-04-21 18:19 -29.22655 -56.81863 36998 ft 504 kts 25°
2026-04-21 18:20 -29.16851 -56.77352 37004 ft 505 kts 25°
2026-04-21 18:20 -29.11039 -56.72841 36995 ft 504 kts 25°
2026-04-21 18:21 -29.05272 -56.68371 37003 ft 504 kts 25°
2026-04-21 18:21 -28.99461 -56.63873 37000 ft 504 kts 25°
2026-04-21 18:22 -28.93651 -56.59382 37009 ft 504 kts 25°
2026-04-21 18:22 -28.87844 -56.54898 37000 ft 504 kts 25°
2026-04-21 18:23 -28.82076 -56.50457 36974 ft 503 kts 25°
2026-04-21 18:23 -28.76275 -56.45999 36995 ft 503 kts 25°
2026-04-21 18:24 -28.70476 -56.41548 37003 ft 502 kts 25°
2026-04-21 18:24 -28.64674 -56.37099 37002 ft 503 kts 25°
2026-04-21 18:25 -28.58914 -56.32687 37006 ft 503 kts 25°
2026-04-21 18:25 -28.53109 -56.28247 36998 ft 503 kts 25°
2026-04-21 18:26 -28.47301 -56.23811 36993 ft 503 kts 25°
2026-04-21 18:26 -28.41494 -56.19381 36999 ft 503 kts 25°
2026-04-21 18:27 -28.35724 -56.14986 37002 ft 503 kts 25°
2026-04-21 18:27 -28.29913 -56.10565 37003 ft 503 kts 25°
2026-04-21 18:28 -28.24094 -56.06144 36996 ft 504 kts 25°
2026-04-21 18:28 -28.18271 -56.01726 36987 ft 503 kts 26°
2026-04-21 18:29 -28.12452 -55.97316 36996 ft 503 kts 26°
2026-04-21 18:29 -28.06671 -55.92941 36999 ft 503 kts 26°
2026-04-21 18:30 -28.00848 -55.88541 37005 ft 503 kts 25°
2026-04-21 18:30 -27.95032 -55.84151 37007 ft 503 kts 25°
2026-04-21 18:31 -27.89212 -55.79764 36992 ft 503 kts 25°
2026-04-21 18:31 -27.83435 -55.75415 36998 ft 502 kts 26°
2026-04-21 18:32 -27.77619 -55.71043 37004 ft 502 kts 26°
2026-04-21 18:32 -27.71810 -55.66680 37005 ft 502 kts 26°
2026-04-21 18:32 -27.68899 -55.64496 36872 ft 504 kts 26°
2026-04-21 18:33 -27.65962 -55.62297 36345 ft 507 kts 26°
2026-04-21 18:33 -27.63035 -55.60102 35791 ft 506 kts 26°
2026-04-21 18:33 -27.60139 -55.57933 35185 ft 507 kts 26°
2026-04-21 18:33 -27.57205 -55.55737 34663 ft 505 kts 26°
2026-04-21 18:34 -27.54295 -55.53558 34228 ft 501 kts 27°
2026-04-21 18:34 -27.51392 -55.51386 33725 ft 499 kts 27°
2026-04-21 18:34 -27.48513 -55.49233 33255 ft 495 kts 27°
2026-04-21 18:34 -27.45656 -55.47097 32809 ft 491 kts 27°
2026-04-21 18:35 -27.43777 -55.45693 32519 ft 488 kts 27°
2026-04-21 18:35 -27.40009 -55.42881 31944 ft 483 kts 27°
2026-04-21 18:35 -27.37253 -55.40826 31519 ft 480 kts 27°
2026-04-21 18:35 -27.34480 -55.38761 31088 ft 476 kts 27°
2026-04-21 18:36 -27.31728 -55.36711 30668 ft 473 kts 27°
2026-04-21 18:36 -27.28996 -55.34678 30243 ft 470 kts 27°
2026-04-21 18:36 -27.26279 -55.32658 29739 ft 466 kts 27°
2026-04-21 18:36 -27.23588 -55.30657 29288 ft 462 kts 27°
2026-04-21 18:37 -27.20916 -55.28672 28824 ft 458 kts 27°
2026-04-21 18:37 -27.18306 -55.26733 28375 ft 454 kts 27°
2026-04-21 18:37 -27.15686 -55.24788 27958 ft 450 kts 28°
2026-04-21 18:37 -27.13083 -55.22858 27519 ft 447 kts 28°
2026-04-21 18:38 -27.10498 -55.20943 27080 ft 443 kts 28°
2026-04-21 18:38 -27.07940 -55.19048 26658 ft 439 kts 28°
2026-04-21 18:38 -27.05401 -55.17168 26240 ft 435 kts 28°
2026-04-21 18:38 -27.02886 -55.15307 25824 ft 431 kts 28°
2026-04-21 18:39 -27.00389 -55.13460 25407 ft 428 kts 28°
2026-04-21 18:39 -26.97915 -55.11631 24976 ft 425 kts 28°
2026-04-21 18:39 -26.95454 -55.09814 24556 ft 422 kts 28°
2026-04-21 18:39 -26.93047 -55.08037 24142 ft 419 kts 28°
2026-04-21 18:40 -26.90622 -55.06247 23718 ft 416 kts 28°
2026-04-21 18:40 -26.88209 -55.04468 23244 ft 413 kts 28°
2026-04-21 18:40 -26.86624 -55.03299 22971 ft 411 kts 28°
2026-04-21 18:40 -26.83443 -55.00955 22383 ft 408 kts 29°
2026-04-21 18:41 -26.81084 -54.99218 21952 ft 405 kts 29°
2026-04-21 18:41 -26.78733 -54.97488 21534 ft 402 kts 29°
2026-04-21 18:41 -26.76437 -54.95798 21128 ft 399 kts 29°
2026-04-21 18:41 -26.74129 -54.94100 20725 ft 395 kts 30°
2026-04-21 18:42 -26.71844 -54.92420 20331 ft 392 kts 30°
2026-04-21 18:42 -26.69572 -54.90751 19934 ft 389 kts 30°
2026-04-21 18:42 -26.67318 -54.89096 19542 ft 386 kts 30°
2026-04-21 18:42 -26.65076 -54.87450 19135 ft 384 kts 30°
2026-04-21 18:43 -26.62852 -54.85818 18728 ft 382 kts 30°
2026-04-21 18:43 -26.60632 -54.84190 18326 ft 380 kts 30°
2026-04-21 18:43 -26.58457 -54.82601 17893 ft 377 kts 29°
2026-04-21 18:43 -26.56089 -54.81467 17448 ft 367 kts
2026-04-21 18:44 -26.53588 -54.81102 17083 ft 360 kts
2026-04-21 18:44 -26.51109 -54.80855 16694 ft 357 kts
2026-04-21 18:44 -26.48643 -54.80627 16308 ft 354 kts
2026-04-21 18:44 -26.46198 -54.80396 15928 ft 351 kts
2026-04-21 18:45 -26.43778 -54.80157 15548 ft 348 kts
2026-04-21 18:45 -26.41379 -54.79911 15182 ft 345 kts
2026-04-21 18:45 -26.38998 -54.79662 14805 ft 342 kts
2026-04-21 18:45 -26.36635 -54.79412 14418 ft 340 kts
2026-04-21 18:46 -26.34287 -54.79162 14055 ft 338 kts
2026-04-21 18:46 -26.31980 -54.78917 13664 ft 337 kts
2026-04-21 18:46 -26.29654 -54.78669 13268 ft 334 kts
2026-04-21 18:46 -26.27351 -54.78423 12882 ft 332 kts
2026-04-21 18:47 -26.25063 -54.78179 12506 ft 329 kts
2026-04-21 18:47 -26.22794 -54.77937 12147 ft 326 kts
2026-04-21 18:47 -26.20542 -54.77698 11780 ft 324 kts
2026-04-21 18:47 -26.18310 -54.77505 11421 ft 321 kts
2026-04-21 18:48 -26.16092 -54.77358 11074 ft 318 kts
2026-04-21 18:48 -26.13921 -54.77224 10726 ft 316 kts
2026-04-21 18:48 -26.11734 -54.77089 10417 ft 312 kts
2026-04-21 18:48 -26.09598 -54.76955 10263 ft 303 kts
2026-04-21 18:49 -26.07521 -54.76821 10131 ft 295 kts
2026-04-21 18:49 -26.05505 -54.76689 9974 ft 288 kts
2026-04-21 18:49 -26.04203 -54.76604 9964 ft 279 kts
2026-04-21 18:49 -26.01579 -54.76433 9393 ft 282 kts
2026-04-21 18:50 -25.99616 -54.76305 9051 ft 282 kts
2026-04-21 18:50 -25.97692 -54.76178 8765 ft 280 kts
2026-04-21 18:50 -25.95751 -54.76050 8446 ft 279 kts
2026-04-21 18:50 -25.93820 -54.75923 8154 ft 277 kts
2026-04-21 18:51 -25.91900 -54.75796 7854 ft 276 kts
2026-04-21 18:51 -25.89986 -54.75670 7549 ft 275 kts
2026-04-21 18:51 -25.88083 -54.75545 7254 ft 273 kts
2026-04-21 18:51 -25.86187 -54.75419 6936 ft 273 kts
2026-04-21 18:52 -25.84292 -54.75294 6640 ft 272 kts
2026-04-21 18:52 -25.82435 -54.75172 6343 ft 271 kts
2026-04-21 18:52 -25.80561 -54.75048 6041 ft 269 kts
2026-04-21 18:52 -25.78708 -54.74926 5840 ft 262 kts
2026-04-21 18:53 -25.76939 -54.74808 5697 ft 247 kts
2026-04-21 18:53 -25.75267 -54.74697 5583 ft 236 kts
2026-04-21 18:53 -25.73659 -54.74591 5497 ft 228 kts
2026-04-21 18:53 -25.72120 -54.74489 5390 ft 216 kts
2026-04-21 18:54 -25.70676 -54.74373 5315 ft 203 kts
2026-04-21 18:54 -25.69448 -54.73683 5087 ft 204 kts 41°
2026-04-21 18:54 -25.68636 -54.72422 4900 ft 202 kts 61°
2026-04-21 18:54 -25.68111 -54.70990 4718 ft 199 kts 63°
2026-04-21 18:55 -25.67755 -54.70029 4567 ft 199 kts 63°
2026-04-21 18:55 -25.67056 -54.68161 4309 ft 195 kts 63°
2026-04-21 18:55 -25.66540 -54.66790 4081 ft 187 kts 63°
2026-04-21 18:55 -25.66296 -54.65398 3861 ft 190 kts 98°
2026-04-21 18:56 -25.66799 -54.64049 3728 ft 189 kts 112°
2026-04-21 18:56 -25.67333 -54.62724 3533 ft 192 kts 111°
2026-04-21 18:56 -25.67871 -54.61402 3396 ft 182 kts 110°
2026-04-21 18:56 -25.68386 -54.60154 3135 ft 172 kts 111°
2026-04-21 18:57 -25.68870 -54.58992 2914 ft 162 kts 111°
2026-04-21 18:57 -25.69337 -54.57868 2721 ft 159 kts 111°
2026-04-21 18:57 -25.69791 -54.56779 2549 ft 152 kts 111°
2026-04-21 18:57 -25.70242 -54.55696 2308 ft 154 kts 112°
2026-04-21 18:58 -25.70691 -54.54619 2097 ft 156 kts 111°
2026-04-21 18:58 -25.71150 -54.53517 1903 ft 158 kts 112°
2026-04-21 18:58 -25.71612 -54.52408 1676 ft 157 kts 112°
2026-04-21 18:58 -25.72066 -54.51349 1508 ft 152 kts 113°
2026-04-21 18:59 -25.72505 -54.50303 1310 ft 148 kts 113°
2026-04-21 18:59 -25.72928 -54.49267 1081 ft 146 kts 114°
2026-04-21 18:59 -25.73345 -54.48265 933 ft 137 kts 115°
2026-04-21 18:59 -25.73675 -54.47475 927 ft 83 kts 115°
2026-04-21 19:00 -25.73829 -54.47105 930 ft 23 kts 113°
2026-04-21 19:00 -25.73884 -54.46952 928 ft 19 kts 97°
2026-04-21 19:00 -25.73895 -54.46860 928 ft 7 kts 112°
2026-04-21 19:00 -25.73923 -54.46872 929 ft 7 kts 272°
2026-04-21 19:01 -25.73905 -54.46920 931 ft 7 kts 295°
2026-04-21 19:01 -25.73885 -54.46965 928 ft 6 kts 296°
2026-04-21 19:01 -25.73861 -54.47024 929 ft 15 kts 293°
2026-04-21 19:01 -25.73803 -54.47165 929 ft 20 kts 296°
2026-04-21 19:02 -25.73723 -54.47275 927 ft 17 kts 322°
2026-04-21 19:02 -25.73642 -54.47340 927 ft 13 kts 324°
2026-04-21 19:02 -25.73569 -54.47397 928 ft 13 kts 324°
2026-04-21 19:02 -25.73499 -54.47454 928 ft 12 kts 324°
2026-04-21 19:03 -25.73431 -54.47507 927 ft 12 kts 324°
2026-04-21 19:03 -25.73372 -54.47553 926 ft 9 kts 323°
2026-04-21 19:03 -25.73325 -54.47592 926 ft 8 kts 322°
2026-04-21 19:03 -25.73294 -54.47639 926 ft 8 kts 293°
2026-04-21 19:04 -25.73280 -54.47671 928 ft 1 kts 295°
2026-04-21 19:04 -25.73279 -54.47674 927 ft 1 kts 295°
2026-04-21 19:04 -25.73277 -54.47678 927 ft 1 kts 295°
2026-04-21 19:04 -25.73270 -54.47689 926 ft 3 kts 322°
2026-04-21 19:05 -25.73243 -54.47685 929 ft 3 kts 26°
2026-04-21 19:05 -25.73235 -54.47680 926 ft 2 kts 26°
2026-04-21 19:05 -25.73226 -54.47675 926 ft 1 kts 26°
2026-04-21 19:05 -25.73225 -54.47675 929 ft 0 kts 26°